Вернуться в каталог

SL-3 DEB

АктивенPO
NORAD 14454·DEBRIS·🇷🇺 Russia

Запущен Oct 28, 1983 с Plesetsk Cosmodrome

Loading…

Ближайшие Пролёты (ближайшие 24 часа)

TLE

СвежийSource: Space-Track

Эпоха: Sep 14, 2026, 00:24 UTC

1 14454U 83109C   26257.01725910  .00000078  00000-0  26110-4 0  9995
2 14454  81.1590 276.5563 0093849 327.0790  60.7630 14.26419664229636

Отслеживайте SL-3 DEB в реальном времени с AllMySat

Download on the App Store